CZ-4 DEB, 26168

Orbit data source: Space-Track

CZ-4 DEB, 26168 is space debris in SSO originally from a launch on Thu, 14 Oct 1999 UTC launched from the Taiyaun Space Center, China (TSC). Debris objects in space refer to the collection of defunct objects orbiting the Earth. Examples of debris include non-operational satellites, rocket bodies, and fragments generated from explosions, collisions, or faulty payload assembly.

Loading next visibility...
Identifier
26168, 1999-057BE
Orbit
SSO
Country
Flag of CNCN / PRC
Related business
Manufacturer
Unknown
Mission
Spacecraft
Bus & Motor
Unknown
Mass
Unknown
Launch date (UTC)
1999-10-14 (26 years ago)
Launch vehicle
Unknown
Launch site
Taiyaun Space Center, China (TSC)
Object type
Payload
Rocket body
Debris
Shape & HBR
Unknown shape, 0.1 m
Radar Cross Section
Medium (>0.1 m² and <1 m²)

Expand to show TLE details & history
Last TLE update: 6 hours ago

TLE from 6 hours ago
0 CZ-4 DEB
1 26168U 99057BE  25351.00057740  .00000221  00000-0  87380-4 0  9997
2 26168  98.8196  27.2990 0103144 120.5602 304.6313 14.35692009347715
Epoch: 2025-12-17T00:00Z
TLE epoch observation values (Epoch: 2025-12-17T00:00:49.887Z)
Latitude
62.93732°
Longitude
-76.3674°
Altitude
742.141 km
Speed
7.511 km/s
True Right ascension
00h 38m 52s
True Declination
62° 47' 51"
Sunlit
Object was in full shadow at epoch
Visualization orbit readout
Latitude
Unknown
Longitude
Unknown
Altitude
Unknown
Speed
Unknown
Apparent Right ascension
Unknown
Apparent Declination
Unknown
Sunlit
N/A
Visualization observer readout
Local Sidereal Time
05:14:45
Azimuth
Unknown
Elevation
Unknown
Doppler factor
Unknown
Orbital elements
Apogee altitude
843.638 km
Perigee altitude
696.182 km
Semi-major axis
7,148.047 km
Eccentricity
0.01031
Inclination
98.8196°
RAAN
27.299°
Arg. of periapsis
120.5602°
True anomaly
303.65164°
Mean anomaly
304.6313°
Eccentric anomaly
304.14218°
Mean motion
3.59139 °/min
Orbital period
100.24 mins
BSTAR
0.00008738
Loading maneuver chart data...
Computing Atmospheric mass density...

Documentation

Showing up to 5 results
|